Theta_e
305 307 306 308 309 307 301 306 311 310 308 308 306 301 297 289 284 288 290 288 288 287 287 289 289 289 289 288 287 286 285 284 285 285 284 284 283 281 280 280 280 280 280 280
301 301 301 304 305 305 305 304 304 304 303 301 296 279 287 284 282 284 286 286 285 285 287 287 288 288 288 288 287 286 285 285 285 284 283 283 283 280 280 279 279 279 279 279
312 301 302 306 299 300 287 281 294 297 299 278 287 287 286 286 283 286 287 285 285 285 286 287 288 288 288 288 287 286 285 285 284 283 282 281 281 280 279 279 279 279 279 279
305 304 309 300 285 288 295 290 287 288 286 282 285 286 284 284 284 286 285 283 284 286 287 288 288 287 286 287 286 285 284 284 283 282 281 280 280 279 279 279 278 278 278 278
307 306 302 302 292 291 293 296 287 288 289 287 281 284 293 289 284 284 285 287 287 287 287 287 288 288 286 286 285 284 283 283 282 282 280 280 279 279 278 278 278 278 278 278
299 303 305 298 295 290 286 296 291 285 287 286 291 300 294 292 289 287 287 288 288 288 288 288 288 287 285 285 283 282 283 283 281 280 280 279 279 278 278 277 278 278 278 279
301 304 300 296 292 289 298 299 289 291 293 292 297 295 295 291 289 288 288 288 289 288 286 287 287 286 284 283 282 283 282 281 280 279 279 279 278 278 277 277 277 277 278 278
294 298 297 290 291 297 296 297 295 298 294 295 292 292 291 290 288 289 288 288 288 286 285 286 285 284 283 281 284 283 281 280 279 279 278 278 278 277 277 277 277 278 278 278
296 296 294 290 293 294 296 296 297 294 292 290 292 292 291 289 288 288 287 286 286 284 285 285 284 284 282 283 283 283 280 280 278 277 277 277 278 278 278 278 278 278 279 279
298 298 296 296 295 293 294 295 294 293 293 291 292 290 289 289 287 285 285 285 285 285 283 283 284 284 284 283 283 281 279 278 277 276 276 277 278 278 279 279 279 278 279 279
298 298 297 295 296 296 295 293 293 293 293 291 289 289 287 286 285 285 285 285 285 284 284 284 283 283 283 283 282 279 278 277 276 275 275 276 277 277 278 278 278 279 279 279
300 298 297 295 293 295 295 294 293 291 289 288 287 286 285 285 285 285 283 284 284 283 282 283 282 282 281 280 280 278 277 276 275 276 276 277 277 277 278 279 281 281 282 282
294 291 291 292 290 292 293 292 290 285 286 285 285 284 284 283 283 284 283 281 281 282 281 281 280 280 279 279 279 277 276 275 275 276 276 276 277 278 279 279 279 280 281 282
287 285 290 291 290 287 286 286 286 285 285 284 284 284 282 280 281 280 280 280 280 279 279 279 279 278 278 279 278 277 275 276 276 276 276 277 277 278 278 279 280 279 279 279
284 283 285 285 284 285 284 282 282 281 278 279 282 281 280 277 279 278 278 278 277 277 278 278 277 277 278 278 277 277 276 276 276 276 277 278 279 279 279 279 278 278 278 278
281 283 285 282 285 282 277 277 277 278 275 279 278 278 278 278 277 276 276 276 276 276 276 276 276 277 278 278 278 277 277 277 279 279 279 278 278 278 278 278 278 278 278 278
282 285 282 282 281 279 276 274 272 273 275 275 275 276 275 274 274 274 274 275 275 275 275 276 277 278 279 279 278 278 278 278 278 277 276 277 277 277 277 277 278 278 278 278
278 276 276 275 275 275 274 275 276 276 274 275 274 274 273 273 273 273 273 274 274 275 276 277 278 279 278 278 278 279 278 277 276 275 275 275 275 277 277 276 276 277 277 277
279 277 277 275 276 276 275 275 276 275 274 274 273 272 272 273 273 273 273 273 274 275 276 277 279 280 278 278 279 279 277 276 275 275 274 275 274 275 276 275 276 276 277 277
278 279 278 278 278 277 276 275 274 273 274 273 272 272 272 272 272 272 273 274 274 275 276 278 279 278 278 278 279 277 276 275 274 274 274 275 274 274 275 275 276 276 277 277
276 278 278 278 276 275 274 274 273 272 272 272 271 271 271 272 272 273 273 274 274 275 278 279 278 277 278 278 276 276 275 275 274 274 273 273 273 274 274 275 276 277 277 277
277 277 277 275 274 273 273 273 273 272 271 271 271 271 271 272 272 273 273 273 274 275 277 279 278 278 279 278 276 275 275 275 274 274 273 273 273 274 275 276 276 276 277 278
276 275 274 273 272 272 272 272 271 271 270 271 271 271 271 272 272 272 272 273 274 276 278 278 278 278 279 277 275 275 274 274 274 274 274 274 274 275 275 276 276 277 277 278
273 272 272 272 272 271 271 271 270 270 271 271 271 271 271 271 272 272 272 273 275 276 278 277 277 278 278 275 274 274 274 274 274 274 275 275 275 275 275 275 276 277 277 279
271 271 271 271 271 270 270 270 269 270 271 270 271 271 271 271 271 272 274 273 274 276 276 276 276 276 275 274 274 274 274 274 274 274 274 274 275 275 275 275 276 277 279 278
270 270 271 271 270 270 269 269 270 270 270 270 270 270 270 272 272 272 272 273 274 275 275 275 275 275 274 274 274 273 274 274 275 276 274 275 276 276 275 276 276 277 277 279
269 270 271 269 269 269 268 270 269 268 269 268 268 270 271 270 270 271 272 272 273 274 274 275 275 274 274 274 273 274 274 275 275 274 275 277 277 278 277 276 276 277 279 280
Wind_Speed
15 17 12 15 16 12 14 18 13 26 17 23 16 8 10 3 3 7 8 6 5 5 8 15 16 17 18 21 22 22 24 25 27 28 26 26 26 24 24 23 22 21 20 21
5 15 13 13 15 20 22 17 17 21 24 21 13 2 5 4 4 6 7 7 6 4 9 15 19 18 17 22 25 26 27 29 30 30 29 29 28 26 24 24 23 22 21 20
7 1 4 8 11 13 1 3 6 7 12 1 4 5 5 5 4 6 8 6 6 7 14 19 23 22 21 23 24 26 27 31 31 29 30 29 27 25 24 24 22 22 22 21
4 4 6 6 1 4 10 7 12 7 6 5 6 6 8 6 5 8 6 5 6 12 18 23 25 26 24 22 24 26 29 31 29 28 27 27 26 25 25 24 22 22 23 23
3 3 9 7 1 5 5 6 8 7 7 7 4 3 5 3 5 4 4 10 17 18 20 24 28 28 24 25 27 27 29 28 29 26 26 26 26 25 24 22 21 22 22 23
0 4 6 6 2 4 4 5 5 6 5 4 4 4 2 4 3 7 13 15 20 27 26 28 32 28 25 26 24 26 30 29 27 25 25 26 27 26 24 23 23 22 23 22
9 6 8 6 5 5 3 6 4 4 6 4 2 3 4 7 8 11 16 25 29 30 28 31 32 28 26 26 24 31 29 27 24 24 25 26 28 26 25 23 22 23 23 25
2 4 9 4 3 5 3 1 4 5 1 1 4 6 4 7 7 14 18 25 30 24 27 32 29 24 25 24 32 32 29 25 26 27 25 24 23 23 23 21 21 22 22 25
9 7 1 5 4 2 1 4 5 1 1 3 4 4 6 7 10 15 20 23 25 22 27 32 27 26 25 32 32 33 27 26 27 27 23 21 20 21 21 19 20 21 20 20
3 2 10 10 2 3 3 7 0 1 5 5 6 4 8 11 10 10 17 17 22 24 23 27 28 28 28 32 32 30 26 24 26 24 21 18 18 19 19 19 19 19 19 19
12 14 9 5 4 10 7 1 5 7 7 9 7 9 8 7 9 14 19 24 25 23 24 28 29 27 26 27 30 26 21 22 23 20 20 19 18 18 18 21 22 21 23 25
4 8 6 9 8 1 4 5 6 4 6 6 7 7 5 9 17 17 20 24 26 28 26 25 29 27 27 31 30 24 20 20 18 18 18 18 19 20 21 22 24 26 28 29
4 4 4 9 7 5 5 7 6 4 6 7 10 8 12 13 18 23 24 24 22 26 28 28 27 27 29 30 29 24 20 19 17 18 17 17 18 18 18 24 23 24 24 25
3 3 4 3 4 8 8 12 14 15 14 11 14 17 18 15 20 17 19 25 27 27 28 27 27 27 29 28 24 23 20 18 17 18 18 19 19 20 20 18 18 22 20 22
3 2 6 8 10 5 5 8 8 7 6 10 12 13 17 15 18 22 24 26 27 25 24 25 25 27 29 27 22 19 19 20 20 21 20 20 19 21 21 20 19 20 22 24
9 8 6 3 8 6 3 4 4 8 6 13 16 16 18 21 23 23 24 26 21 21 26 25 26 30 28 23 21 20 21 17 18 17 17 19 20 19 19 18 18 19 19 21
3 8 6 7 6 6 4 5 6 6 12 14 17 21 21 21 20 19 21 24 24 26 28 27 28 28 25 19 20 21 21 22 17 20 17 18 19 18 19 19 19 18 20 22
9 8 8 7 8 7 7 7 11 12 12 21 23 22 20 17 14 22 24 26 24 24 26 26 25 24 20 23 19 21 17 17 19 19 19 18 18 19 19 19 18 18 21 23
8 10 12 8 8 10 11 13 15 18 21 22 22 18 20 20 21 23 24 24 22 19 25 28 24 19 24 21 20 13 21 18 20 21 21 19 21 19 18 18 19 20 20 21
12 11 7 5 8 8 13 17 19 20 22 23 21 18 17 20 22 23 22 22 23 22 27 26 19 21 26 23 12 17 16 17 20 21 21 18 18 19 20 21 20 20 20 21
11 6 8 10 10 13 15 17 18 17 23 22 18 17 19 23 23 23 18 14 26 26 28 22 17 23 19 12 15 17 17 19 21 21 20 20 21 21 21 21 21 22 22 22
3 6 9 10 12 16 18 18 17 19 20 19 19 19 19 21 20 23 23 19 23 25 27 18 20 19 21 13 21 19 19 20 22 23 23 23 20 21 21 22 22 23 23 23
9 9 11 12 13 17 19 16 17 19 19 20 20 20 19 22 22 17 12 24 26 26 27 18 19 19 19 19 20 18 20 22 23 24 25 25 21 22 22 23 23 24 24 25
11 12 13 14 16 13 10 17 20 20 21 23 22 22 22 19 24 22 21 25 26 25 23 21 19 19 17 20 20 19 21 22 24 24 26 23 26 24 24 24 25 26 26 27
12 14 13 12 12 11 15 18 19 18 20 21 22 22 22 22 19 27 25 27 25 24 22 20 18 17 17 19 20 19 22 22 22 21 24 25 24 25 26 26 26 26 28 28
14 11 13 12 12 14 16 17 15 19 20 21 24 24 25 23 24 24 24 23 24 22 23 21 19 17 18 19 18 21 21 22 24 23 22 25 26 29 28 29 29 29 31 27
14 17 15 14 14 16 17 19 19 19 22 22 24 25 25 26 26 25 24 25 24 23 23 20 18 16 15 17 19 19 20 22 20 21 21 23 27 30 31 31 31 32 28 30
Wind_Direction
249 271 270 262 261 233 211 237 249 275 284 279 286 298 279 249 274 284 293 302 289 286 294 306 315 326 330 329 331 330 324 315 309 307 303 301 297 296 294 290 289 291 289 287
242 246 255 263 262 247 249 254 255 270 279 283 290 325 307 278 235 240 242 242 254 254 300 313 318 317 320 326 327 325 321 316 314 308 303 297 294 294 293 291 291 291 284 280
274 224 270 263 238 232 201 239 184 203 241 44 314 317 282 286 261 305 309 305 298 289 297 313 321 324 318 316 314 312 312 312 312 308 299 292 291 288 286 288 288 284 282 279
290 321 255 253 125 160 195 222 213 277 257 225 237 261 278 246 253 281 274 269 277 296 315 325 325 321 318 309 304 308 308 307 307 302 292 291 287 283 285 286 282 279 280 277
268 229 308 284 260 150 164 277 207 219 274 265 239 250 286 186 205 238 264 285 293 303 316 320 319 320 316 310 307 305 300 299 302 300 292 286 279 277 279 278 275 274 275 275
79 253 261 232 165 147 145 286 179 167 234 235 181 274 259 314 318 294 304 309 315 325 321 319 320 320 312 306 302 296 299 301 298 294 286 276 276 278 278 273 274 275 275 273
229 255 274 250 151 165 90 261 171 196 254 221 235 241 275 317 306 303 309 317 322 317 311 311 316 314 301 298 291 303 300 296 294 293 287 279 276 276 277 274 273 271 274 275
176 225 279 130 81 176 224 42 220 283 229 268 237 274 280 291 288 308 309 311 311 300 297 304 307 305 292 287 308 308 301 297 299 296 291 283 276 276 273 271 272 274 273 274
194 220 253 205 256 248 11 266 299 96 231 247 266 264 293 282 289 285 283 287 292 286 293 303 307 306 290 299 306 304 297 295 297 296 295 286 278 275 274 272 265 268 270 274
325 320 276 307 303 19 304 260 219 94 255 234 265 264 270 277 273 272 292 298 304 303 300 300 306 304 300 302 306 295 290 290 296 295 294 285 278 275 273 272 270 270 272 270
267 291 320 46 326 290 269 121 229 237 252 239 232 263 248 273 291 301 308 312 310 303 299 296 301 299 304 310 308 293 287 292 293 291 287 289 284 274 275 270 269 267 263 261
298 342 313 313 314 334 259 257 272 268 278 260 234 256 266 293 302 303 300 308 307 304 298 302 310 308 311 315 312 298 293 296 291 291 289 288 285 288 289 284 287 286 286 285
281 328 236 254 298 351 323 306 290 256 273 287 297 280 302 291 303 308 308 296 295 305 308 308 308 309 312 317 316 307 292 292 290 292 290 288 289 288 292 297 294 292 293 292
318 326 322 328 287 313 296 298 308 302 305 298 292 305 299 286 306 305 303 308 309 309 306 305 307 309 312 315 318 314 310 299 295 290 290 288 286 287 287 288 300 303 302 299
299 202 235 281 297 319 340 328 319 316 304 318 324 308 317 311 313 311 312 313 311 308 307 311 309 307 318 319 321 319 315 310 305 298 292 290 299 301 298 296 295 295 300 300
319 305 302 288 307 312 345 323 298 315 314 319 320 322 319 313 305 306 312 317 314 314 310 310 308 313 318 325 326 324 320 310 312 309 307 309 304 299 298 297 295 294 293 291
331 315 327 312 305 304 297 276 250 273 298 302 308 320 321 315 312 314 315 316 313 307 307 306 305 320 323 331 328 323 320 316 318 319 310 306 301 298 297 297 295 295 294 298
233 259 251 245 279 297 295 277 304 308 307 320 327 323 315 314 309 313 315 317 315 312 310 319 321 321 336 334 331 324 317 324 322 318 314 310 304 301 303 300 297 297 298 300
275 272 298 289 279 275 287 303 324 331 330 332 328 314 308 305 308 310 315 313 313 312 312 319 320 322 331 332 327 328 327 328 330 329 324 319 315 312 307 304 302 301 299 298
294 300 303 312 333 316 313 330 332 330 332 332 323 311 313 314 315 312 314 305 300 302 312 317 331 332 331 327 327 329 332 335 334 332 328 320 314 307 309 311 309 305 304 302
289 306 323 329 321 327 332 332 332 324 326 327 310 305 307 310 311 311 314 308 309 320 325 322 320 332 328 323 341 344 340 338 337 334 325 319 314 315 312 310 311 311 306 304
332 334 327 330 329 325 334 333 329 325 318 315 314 312 311 309 314 313 309 299 308 320 319 316 329 329 325 341 342 340 338 339 339 340 334 328 318 315 314 313 310 308 308 309
354 347 336 336 331 322 328 334 327 325 315 317 311 310 308 307 306 308 307 319 319 319 322 322 326 326 330 335 335 335 337 340 340 340 339 333 322 317 313 311 312 313 311 311
348 344 334 336 339 333 326 328 326 324 326 320 313 310 308 308 308 309 304 311 316 318 320 321 322 325 328 330 332 333 336 338 339 339 335 328 336 323 316 315 314 316 315 319
343 340 339 336 335 331 326 326 322 323 327 319 316 316 315 311 296 305 311 314 316 318 316 318 320 324 326 331 330 331 332 334 335 325 330 337 325 326 324 321 318 319 323 320
338 329 330 333 325 327 327 323 318 326 325 321 319 317 315 316 314 314 314 316 313 318 317 323 324 325 324 330 328 328 330 334 336 336 335 337 340 339 332 328 324 322 322 321
340 345 342 338 340 334 328 328 329 321 323 320 308 314 318 316 316 316 317 313 313 313 314 319 319 322 326 328 326 331 334 336 341 336 337 345 347 345 340 334 328 325 321 333